Date,TemperatureHighF,TemperatureAvgF,TemperatureLowF,DewpointHighF,DewpointAvgF,DewpointLowF,HumidityHigh,HumidityAvg,HumidityLow,PressureMaxIn,PressureMinIn,WindSpeedMaxMPH,WindSpeedAvgMPH,GustSpeedMaxMPH,PrecipitationSumIn
2013-3-1,46.8,37.2,30.6,37.5,25.6,19.9,92,65,40,30.12,29.97,14,3,14,0.00
2013-3-2,41.0,35.5,32.2,24.1,21.7,19.0,64,57,48,30.13,30.05,9,3,9,0.00
2013-3-3,35.4,31.8,29.5,26.7,21.4,16.5,82,66,56,30.09,30.01,9,4,9,0.00
2013-3-4,42.1,31.9,25.0,20.0,16.0,12.8,63,52,40,30.18,30.07,14,6,14,0.00
2013-3-5,54.3,36.1,24.8,26.1,19.3,13.1,66,51,31,30.45,30.22,9,3,9,0.00
2013-3-6,42.3,35.3,29.7,33.5,28.2,22.3,84,75,62,30.48,30.41,16,5,16,0.06
2013-3-7,36.5,33.1,30.7,29.4,26.2,22.1,89,76,58,30.47,30.42,14,2,14,0.02
2013-3-8,36.0,31.9,30.4,30.6,28.4,27.3,88,87,79,30.43,30.37,11,0,11,0.00
2013-3-9,64.6,41.1,25.0,24.7,20.5,14.6,77,49,18,30.76,30.58,12,3,12,0.30
2013-3-10,63.3,41.2,14.9,30.9,24.8,9.6,85,57,23,30.82,30.68,8,2,8,0.00
2013-3-11,55.2,41.7,35.1,38.6,33.0,16.1,88,73,25,30.73,30.56,14,4,14,2.69
2013-3-12,54.5,50.3,44.4,51.6,47.5,41.6,95,90,80,30.54,30.11,14,4,14,0.50
2013-3-13,51.8,41.6,30.4,40.2,26.8,15.6,91,61,26,30.23,30.16,14,4,14,0.01
2013-3-14,37.0,31.0,25.2,22.8,10.4,0.1,60,43,28,30.26,30.18,19,7,20,0.00
2013-3-15,43.7,30.9,22.5,25.7,10.7,-2.0,73,45,23,30.30,30.07,15,6,15,0.00
2013-3-16,44.2,33.4,24.4,22.0,10.9,3.3,64,40,23,30.30,30.13,9,2,9,0.00
2013-3-17,40.3,30.9,21.0,36.1,6.3,-7.4,97,38,21,30.62,30.30,21,5,21,0.00
2013-3-18,44.2,29.5,15.3,35.9,1.5,-5.4,97,31,21,30.86,30.64,6,2,6,0.00
2013-3-19,42.3,32.3,27.9,34.8,27.3,-10.4,88,82,10,30.58,30.06,15,4,15,0.17
2013-3-20,40.6,30.9,23.7,28.6,16.6,12.3,89,57,37,30.22,30.13,13,4,13,0.06
2013-3-21,45.5,30.3,19.0,22.0,11.9,4.3,78,51,22,30.23,30.01,8,2,8,0.01
2013-3-22,43.3,31.0,17.8,20.0,13.3,6.8,71,48,33,30.17,30.05,14,4,14,0.00
2013-3-23,43.5,35.3,29.1,20.2,16.2,12.7,64,47,31,30.25,30.12,21,7,21,0.00
2013-3-24,54.9,38.1,25.7,22.9,19.2,14.7,69,48,25,30.28,30.14,14,4,14,0.00
2013-3-25,48.6,36.7,28.0,27.4,23.1,19.0,73,59,38,30.19,29.91,16,4,16,0.00
2013-3-26,50.5,38.8,33.1,33.5,24.6,15.5,78,59,31,30.20,29.98,11,2,11,0.00
2013-3-27,57.0,37.6,21.2,32.2,21.4,14.8,80,55,26,30.30,30.19,21,3,21,0.00
2013-3-28,57.0,42.6,34.3,35.1,29.3,23.5,86,61,31,30.45,30.31,11,3,11,0.01
2013-3-29,59.9,43.7,28.0,34.2,27.3,21.6,85,56,29,30.50,30.41,12,3,12,0.00
2013-3-30,61.5,44.9,28.2,30.5,22.2,-18.0,81,46,10,30.53,30.44,14,3,14,0.00
2013-3-31,59.9,42.7,26.4,38.5,24.2,18.9,79,53,22,30.54,30.26,20,4,20,0.01